This is the latest recevied weather packets stored in our database for station/object AD8PA-13. If no packets are shown the sender has not sent any weather packets the latest 10 day(s).
| Time | Temp. | Humidity | Pressure | Rain* | Wind** | Luminosity | Snow |
|---|---|---|---|---|---|---|---|
| 1777156182 | 10.56° C | 83% | 1016.7 hPa | 0 mm | - | - | - |
| 1777155277 | 10.56° C | 82% | 1016.3 hPa | 0 mm | - | - | - |
| 1777154374 | 10.56° C | 82% | 1016.1 hPa | 0 mm | - | - | - |
| 1777153473 | 10.56° C | 83% | 1016 hPa | 0 mm | - | - | - |
| 1777152573 | 10.56° C | 83% | 1015.8 hPa | 0 mm | - | - | - |
| 1777151672 | 10.56° C | 82% | 1015.9 hPa | 0 mm | - | - | - |
| 1777150772 | 10.56° C | 83% | 1015.7 hPa | 0 mm | - | - | - |
| 1777149866 | 10.56° C | 82% | 1015.5 hPa | 0 mm | - | - | - |
| 1777148966 | 10.56° C | 82% | 1015.5 hPa | 0 mm | - | - | - |
| 1777148066 | 10.56° C | 82% | 1015.3 hPa | 0 mm | - | - | - |
| 1777147165 | 10.56° C | 81% | 1015 hPa | 0 mm | - | - | - |
| 1777146265 | 11.11° C | 82% | 1015.2 hPa | 0 mm | - | - | - |
| 1777145365 | 11.11° C | 82% | 1015 hPa | 0 mm | - | - | - |
| 1777144460 | 11.11° C | 81% | 1014.9 hPa | 0 mm | - | - | - |
| 1777143556 | 10.56° C | 84% | 1014.5 hPa | 0 mm | - | - | - |
| 1777142654 | 10.56° C | 85% | 1014.3 hPa | 0 mm | - | - | - |
| 1777141754 | 10° C | 86% | 1014.7 hPa | 0 mm | - | - | - |
| 1777140852 | 10° C | 86% | 1014.8 hPa | 0 mm | - | - | - |
| 1777139949 | 10° C | 86% | 1014.6 hPa | 0 mm | - | - | - |
| 1777139049 | 10° C | 86% | 1014.5 hPa | 0 mm | - | - | - |
| 1777138149 | 9.44° C | 87% | 1014.5 hPa | 0 mm | - | - | - |
| 1777137244 | 10° C | 88% | 1014.4 hPa | 0 mm | - | - | - |
| 1777136341 | 10° C | 88% | 1014.5 hPa | 0 mm | - | - | - |
| 1777135436 | 9.44° C | 88% | 1014.5 hPa | 0 mm | - | - | - |
| 1777134531 | 10.56° C | 86% | 1014.2 hPa | 0 mm | - | - | - |
* Rain latest hour (hover to see other rain measurements)
** Current wind speed in m/s (hover to see current wind gust speed)